Theta_e
294 294 295 297 298 299 299 300 301 303 303 306 306 310 310 312 313 317 324 316 318 318 319 319 318 318 318 320 327 322 322 321 322 326 330 327 329 323 321 320 321 321 323 324 322 323 323 313 316 317 319 315 315 315
295 296 297 298 299 300 300 302 305 303 306 311 309 309 311 313 314 319 323 317 320 321 323 322 321 320 320 321 323 321 323 323 323 326 327 328 324 317 324 324 318 322 321 322 319 320 316 314 314 314 315 315 314 314
298 298 299 300 302 301 302 304 308 309 308 308 310 311 312 312 314 318 322 319 318 324 322 320 321 317 319 321 323 323 324 323 323 325 325 327 324 323 323 324 322 319 316 318 317 316 315 314 314 314 314 314 315 315
300 301 303 303 304 306 308 308 307 308 309 310 311 312 313 313 314 320 323 319 321 322 324 323 320 320 317 318 319 324 323 321 321 322 324 319 325 320 325 322 321 318 316 317 317 316 315 315 315 315 315 315 316 316
306 306 305 306 306 307 307 308 309 310 311 311 312 313 313 313 315 319 319 318 319 321 322 322 319 318 318 318 319 318 320 319 320 322 318 326 319 320 318 318 320 316 316 319 319 317 316 316 315 315 316 315 314 314
308 309 309 310 311 312 312 311 310 310 311 312 313 314 314 314 315 318 317 318 318 320 323 324 319 318 319 319 319 320 321 321 322 323 322 318 316 320 321 321 317 315 315 314 316 315 316 315 311 310 308 307 306 306
309 309 310 311 313 314 315 316 316 316 315 315 315 315 313 314 315 318 317 317 317 318 319 321 321 317 317 319 318 320 321 321 322 321 317 320 317 319 318 321 316 312 311 313 311 313 316 310 309 307 306 305 302 301
309 309 309 310 314 317 317 317 317 317 317 316 316 316 314 314 316 317 316 316 317 317 321 322 318 319 317 318 318 317 319 321 317 314 314 317 314 318 321 314 311 309 310 310 308 309 308 307 306 304 303 301 299 298
309 311 312 312 313 315 317 318 317 317 316 315 315 314 314 317 315 314 315 315 316 314 320 320 318 321 314 312 313 315 317 318 313 314 316 317 313 318 311 309 308 307 308 308 307 306 306 304 301 300 300 299 298 297
309 309 310 312 314 313 313 314 316 316 315 315 316 316 316 316 314 314 313 313 314 314 313 311 313 315 315 312 311 314 313 315 316 313 312 315 314 304 304 304 304 305 307 306 305 304 301 300 300 299 299 299 299 299
309 309 310 310 309 311 312 311 310 311 312 312 312 313 314 315 314 312 313 316 316 317 310 309 310 313 311 316 311 309 313 313 315 315 314 315 313 305 302 302 302 303 304 304 303 300 300 300 299 299 298 297 295 292
310 310 310 310 309 309 310 310 310 310 311 311 312 311 312 311 313 315 311 310 314 313 306 309 308 309 308 312 311 310 310 310 315 310 315 314 305 301 299 300 300 301 301 300 300 299 299 298 297 295 292 291 291 291
310 311 311 310 310 310 310 310 309 311 311 310 311 310 312 308 315 313 310 312 311 305 305 307 308 308 308 309 309 311 313 315 310 313 312 308 301 299 298 301 300 300 299 298 297 295 294 292 291 291 291 291 291 291
309 310 310 310 310 311 310 310 310 311 311 310 308 309 309 313 306 305 306 305 301 302 306 307 306 308 307 308 310 310 305 309 312 313 312 302 299 298 299 299 299 297 295 295 295 292 291 291 291 291 291 291 291 290
307 309 309 310 309 310 310 310 311 311 308 303 304 305 303 298 298 299 299 300 301 302 305 308 308 309 308 309 308 308 308 311 312 312 305 299 298 298 298 298 296 294 295 296 295 292 292 292 292 291 291 290 290 289
305 307 307 308 309 309 309 310 310 307 301 299 299 301 299 301 300 299 299 299 301 303 305 305 307 310 307 309 311 313 313 312 308 304 299 299 298 298 298 296 296 297 296 295 293 292 292 292 292 291 290 289 288 287
304 303 304 305 304 303 308 310 304 299 299 299 298 298 299 298 297 297 298 299 301 302 302 304 310 307 304 309 308 308 308 305 299 298 298 299 298 297 297 296 295 295 295 293 292 292 293 292 291 290 288 288 286 285
300 300 300 300 299 300 299 298 298 298 298 298 299 297 296 297 297 297 297 299 301 300 300 302 301 306 308 308 307 303 299 298 299 298 298 297 297 296 296 296 295 294 293 293 292 292 291 290 288 287 286 285 284 284
295 298 300 300 298 297 297 296 298 297 297 296 296 297 296 297 297 297 298 298 299 300 301 302 305 305 304 300 299 298 298 298 297 297 297 296 296 296 295 295 293 293 292 291 290 289 288 288 286 284 283 282 281 281
292 293 294 296 295 296 296 296 297 297 297 296 296 296 296 296 295 296 297 298 300 301 300 300 298 296 295 294 295 296 297 298 298 297 296 296 296 295 294 292 291 289 289 290 288 286 285 284 283 282 281 280 279 279
292 291 292 293 293 294 294 296 295 296 296 296 295 297 296 296 296 296 297 298 299 297 298 295 294 293 293 293 293 294 296 296 297 297 296 293 291 292 290 289 288 288 287 286 285 283 283 282 281 280 279 278 277 277
291 291 291 291 292 293 294 294 295 295 295 295 296 296 296 297 296 295 296 297 294 291 291 291 290 292 291 291 292 292 292 293 294 295 294 291 289 287 286 285 285 284 284 282 282 281 280 280 279 278 277 276 276 276
291 291 291 291 292 293 293 293 294 294 296 296 296 296 295 295 294 295 295 293 290 288 289 289 288 288 287 287 288 289 289 288 287 287 287 287 285 285 285 284 284 282 281 282 280 279 278 278 277 276 275 275 275 275
292 291 291 292 293 293 292 292 292 294 295 295 296 295 293 294 294 295 293 290 287 287 287 287 289 288 287 286 286 285 284 286 286 285 284 285 285 284 284 283 283 282 281 279 278 277 276 275 275 274 273 273 273 273
292 290 292 293 292 293 294 293 294 295 294 294 295 295 293 293 294 293 291 288 286 284 284 285 285 285 285 283 282 284 284 285 285 285 282 281 282 282 282 280 279 278 277 277 276 275 274 274 273 272 272 272 271 271
292 291 292 292 292 294 293 294 293 293 293 294 293 293 293 294 293 291 288 284 284 282 281 282 284 284 281 281 281 281 282 282 282 283 282 281 280 278 277 276 276 275 276 275 274 274 273 272 272 272 271 271 271 270
292 291 291 290 290 291 293 292 292 293 293 294 293 293 294 294 292 287 283 281 281 280 281 282 280 280 279 278 281 281 281 281 281 279 278 277 277 276 276 275 275 274 274 273 273 272 272 272 271 270 269 270 269 268
290 291 292 290 291 292 292 293 293 292 292 291 292 292 292 291 289 282 280 279 279 280 281 281 281 281 280 280 279 278 277 276 276 276 276 276 276 275 275 274 274 273 273 272 272 272 271 271 269 268 268 268 267 267
291 290 290 290 291 291 291 291 291 289 289 290 292 290 285 280 277 278 277 278 279 278 277 277 278 278 278 277 276 276 275 275 275 274 274 275 274 273 273 272 271 271 271 271 271 271 270 270 269 269 269 268 267 266
290 290 291 290 290 291 289 289 289 287 285 284 283 281 279 276 275 276 276 277 277 277 277 277 277 275 275 275 274 274 275 275 274 273 273 272 271 271 270 269 269 269 270 270 270 269 268 269 268 267 266 266 266 266
289 290 290 290 290 288 287 287 286 285 284 282 282 282 280 276 274 275 276 276 276 276 274 274 274 274 274 273 273 273 272 273 273 272 271 271 270 270 268 269 269 269 269 269 269 268 268 268 267 266 266 265 266 267
288 287 288 289 289 285 285 286 286 287 285 284 281 279 277 279 278 273 274 273 273 273 274 273 272 273 273 273 273 272 272 271 271 271 270 270 270 269 269 269 269 268 268 268 268 267 266 267 267 266 266 266 266 266
287 287 286 287 287 287 285 285 285 285 284 282 279 279 277 278 276 272 273 273 273 272 272 272 273 273 273 272 272 271 271 271 271 270 270 270 270 270 269 269 268 268 268 267 267 267 266 266 267 266 266 266 266 266
Wind_Speed
31 30 28 26 27 28 28 33 32 35 47 44 40 46 51 53 52 25 6 20 17 13 13 11 13 18 21 20 7 13 8 3 3 3 3 3 1 4 2 2 5 6 6 3 3 3 5 6 6 1 5 8 9 10
25 25 25 27 30 31 33 34 34 35 34 37 43 47 50 53 50 20 6 22 18 12 8 9 14 15 14 15 16 20 6 13 10 4 1 2 2 2 0 3 3 4 4 1 6 1 4 5 4 6 7 9 11 11
27 29 27 23 23 36 33 29 30 36 38 40 43 44 46 51 47 23 12 17 16 8 8 8 7 12 18 15 15 8 8 10 9 5 6 3 3 5 4 5 3 4 3 3 1 2 3 6 8 5 5 8 11 12
22 28 27 24 25 19 30 38 37 36 37 39 39 40 43 50 44 13 7 18 13 9 5 3 5 5 12 15 16 11 12 15 15 9 4 3 3 5 4 1 2 3 7 5 6 11 7 6 3 4 10 11 12 11
32 34 34 33 32 32 27 28 31 32 33 34 35 38 41 50 41 11 15 16 14 7 5 8 7 3 3 10 11 11 13 16 12 5 2 2 5 4 2 0 3 5 2 3 4 7 6 8 10 8 8 7 7 7
30 27 26 24 23 23 24 26 28 30 32 34 36 38 45 52 43 11 5 9 12 9 6 4 4 5 9 11 13 13 12 8 6 6 4 5 4 4 4 4 5 3 3 3 5 9 8 6 6 8 8 9 9 10
31 29 27 25 24 21 21 25 28 30 32 33 35 37 45 49 40 11 5 8 9 10 4 5 5 4 7 7 5 7 7 5 4 5 3 4 4 6 3 3 7 2 3 1 5 8 6 10 6 7 9 12 14 14
32 31 27 25 24 22 22 27 30 32 33 33 35 37 38 39 28 15 6 6 15 11 4 4 3 4 3 3 4 3 3 4 7 4 3 3 4 2 4 7 3 4 3 6 5 5 6 7 8 10 9 10 15 17
33 32 34 34 31 30 34 33 33 35 36 38 40 40 42 21 11 10 10 2 12 8 2 3 6 4 4 3 3 3 3 3 2 2 3 4 2 4 4 4 3 4 3 2 6 8 10 11 12 13 13 14 17 15
32 30 31 30 29 32 40 42 39 36 38 41 36 18 8 9 17 13 8 5 2 2 2 3 3 4 3 3 3 3 3 3 2 1 5 2 3 5 4 4 5 5 4 8 9 10 12 13 13 13 12 11 9 8
31 27 24 23 24 23 27 34 34 36 33 22 7 5 17 19 18 7 3 1 2 2 5 4 4 5 3 2 3 2 3 1 4 3 3 4 3 6 6 6 5 6 8 8 13 15 13 13 13 11 8 7 5 6
17 20 22 21 22 23 22 19 21 19 14 11 15 25 21 6 7 4 1 0 2 2 3 3 4 5 4 3 4 3 3 2 3 6 3 3 4 11 10 9 10 13 15 17 17 16 13 10 8 7 5 6 6 7
13 13 12 16 21 19 19 20 22 27 28 20 9 4 3 1 4 2 3 2 2 2 2 4 3 3 4 4 5 2 3 2 5 2 3 3 12 14 14 16 17 16 16 15 13 11 10 8 6 6 7 7 7 7
15 14 12 12 13 13 18 20 18 11 9 7 5 5 5 3 4 3 3 3 2 3 8 9 5 3 3 3 1 4 2 2 3 3 3 4 17 19 17 17 16 14 15 12 10 8 7 7 6 6 6 6 5 7
17 14 12 15 15 13 12 11 6 4 7 7 7 4 4 3 6 4 5 5 5 4 5 5 5 4 2 3 2 4 3 3 4 0 2 14 23 23 18 16 14 14 11 8 6 6 6 6 5 4 3 4 6 9
14 18 18 16 13 12 12 10 12 10 7 6 8 4 4 5 6 9 11 10 5 4 5 5 2 2 2 2 3 3 2 2 2 2 9 21 24 21 17 14 12 9 8 8 6 6 6 5 2 0 3 5 9 12
14 18 14 14 13 11 9 11 10 10 7 5 5 12 10 11 9 7 8 6 6 4 2 2 2 4 1 1 2 3 3 3 7 10 14 19 23 21 15 14 11 9 8 8 7 6 5 4 2 3 5 9 12 13
20 15 13 15 14 13 19 13 8 7 7 9 5 10 15 13 12 11 13 12 6 4 3 2 1 0 3 2 3 2 5 7 10 12 11 14 17 19 14 11 9 9 10 7 5 4 4 2 1 3 7 10 10 10
14 10 7 5 6 6 7 8 7 6 8 5 8 11 11 13 13 12 13 12 8 6 4 2 2 3 3 6 6 4 8 9 12 13 13 14 16 15 11 11 12 9 7 6 6 4 2 3 3 5 8 10 11 10
12 11 5 2 2 6 7 7 7 7 5 4 7 8 6 6 9 11 10 12 8 4 6 4 4 5 6 7 4 5 3 8 12 14 13 14 14 14 13 10 9 8 7 6 5 4 2 1 5 8 12 12 12 12
11 11 8 11 20 14 8 6 7 6 5 5 5 6 5 7 9 8 9 9 8 7 5 7 10 9 8 6 4 1 3 7 10 10 12 11 11 13 13 11 10 8 7 5 3 1 2 4 8 11 13 12 13 10
15 10 13 14 9 7 8 9 6 5 4 5 4 4 4 4 5 8 6 8 6 9 9 10 11 9 8 8 5 1 2 2 3 7 10 13 11 11 9 8 8 8 6 3 1 3 6 10 12 13 13 13 11 10
11 12 10 10 7 7 4 6 5 4 2 2 2 2 3 3 3 3 4 6 6 10 11 8 8 7 7 7 6 4 2 2 5 6 9 10 10 9 9 9 8 6 3 3 6 8 10 12 13 14 11 12 11 11
11 7 8 7 9 4 4 5 4 3 3 3 2 2 2 3 4 4 4 4 7 10 12 10 6 5 7 8 10 12 11 9 11 13 11 9 9 8 6 4 3 4 5 7 9 10 11 11 13 11 12 12 11 12
6 10 7 7 6 4 3 3 4 3 3 3 2 3 3 3 1 3 2 3 8 10 11 11 10 10 9 9 8 9 8 7 7 7 8 8 8 6 6 6 5 6 7 9 10 11 11 13 12 12 13 11 12 14
7 10 5 5 4 3 3 2 3 3 2 2 3 2 1 1 2 3 3 4 6 8 10 10 9 7 8 7 5 5 6 6 6 4 5 5 4 4 3 3 4 8 14 14 14 13 13 13 14 15 13 12 14 14
5 5 5 6 3 4 4 4 3 2 2 3 2 1 1 1 2 3 4 5 3 4 6 7 7 7 6 6 5 5 5 4 4 4 3 3 4 5 6 7 9 13 15 15 15 15 15 15 15 14 13 12 12 12
5 6 4 4 4 4 3 2 2 2 2 3 2 2 2 5 3 3 3 2 3 3 4 5 5 4 3 3 3 3 3 3 4 5 7 9 11 11 12 14 15 15 16 16 16 16 15 15 13 12 12 13 13 12
5 4 3 5 3 4 4 3 2 3 4 4 3 2 3 3 3 3 1 2 2 2 3 4 5 5 4 4 3 3 4 5 4 5 5 4 5 8 17 16 15 15 15 15 15 15 15 14 14 14 14 14 13 12
5 6 2 3 2 2 3 4 5 2 4 5 4 5 5 4 3 5 4 3 2 1 1 1 2 2 3 3 3 5 6 7 9 10 9 9 11 15 15 14 14 15 16 15 15 14 14 14 13 11 11 12 11 13
4 4 2 3 2 3 2 3 2 2 2 4 5 5 6 5 4 3 3 2 2 1 2 3 3 3 3 3 5 6 7 12 14 15 15 15 15 14 13 15 15 16 16 15 15 15 14 15 13 11 11 13 14 14
4 4 4 2 3 3 5 3 1 0 3 2 3 3 3 3 3 1 2 5 3 3 2 3 3 3 5 7 9 11 12 14 16 17 17 16 16 16 16 16 17 16 16 17 17 15 15 15 14 13 13 13 14 14
3 4 4 3 2 2 3 4 1 1 2 2 3 3 3 3 3 1 2 3 2 2 2 2 4 6 9 11 14 15 17 19 19 19 19 19 19 18 17 17 17 17 18 18 17 16 15 15 14 14 14 14 14 14
Wind_Direction
179 186 192 196 199 199 200 205 200 183 187 196 194 177 181 182 183 191 197 172 171 147 136 176 191 189 202 200 161 141 139 149 162 155 178 175 150 195 216 204 181 181 173 186 181 208 264 136 142 274 17 320 327 323
179 185 193 198 196 201 203 185 174 189 191 169 171 175 178 182 183 182 178 164 168 155 125 144 169 177 185 211 201 173 205 155 176 161 95 113 133 51 221 235 176 216 226 249 211 227 109 189 328 309 303 304 311 309
185 189 194 194 180 173 179 194 159 160 167 167 170 173 176 183 180 175 171 148 156 114 114 141 159 190 196 186 166 177 191 158 173 144 146 131 151 168 165 223 192 215 183 227 302 162 271 285 289 289 304 298 303 305
170 162 154 163 173 162 150 149 159 161 162 165 171 174 176 179 179 154 176 159 165 134 113 133 185 170 200 199 189 175 172 169 158 142 118 135 128 217 185 292 207 353 164 230 244 280 286 265 342 358 319 313 310 310
118 121 123 126 134 147 152 146 151 158 165 170 173 174 174 174 175 139 165 154 164 170 127 140 136 93 150 179 181 184 169 158 151 129 116 134 126 133 103 122 224 195 266 213 249 29 343 314 344 339 335 352 350 345
120 122 124 126 130 136 145 153 160 165 169 172 174 174 173 175 176 151 151 146 166 118 114 147 113 88 94 114 123 133 143 140 162 126 120 118 139 186 158 199 99 101 46 349 303 318 308 323 60 39 53 47 50 59
103 106 109 113 117 127 143 155 160 164 168 170 171 172 173 176 178 198 170 162 182 184 136 119 126 131 126 132 111 106 98 120 133 118 82 137 136 173 156 216 135 73 345 321 343 331 162 41 54 59 74 77 78 74
99 98 103 105 100 96 105 143 153 157 158 160 162 163 165 171 181 195 126 73 160 206 210 131 97 136 106 84 95 61 93 109 48 95 104 121 113 170 213 108 95 19 347 88 32 50 88 99 91 86 94 93 84 85
96 93 90 95 94 97 100 117 126 137 143 147 149 151 155 167 170 141 139 219 178 243 252 117 148 153 127 86 85 64 73 84 87 107 139 152 156 196 93 118 82 36 43 89 92 95 100 105 99 95 96 95 96 94
93 92 92 96 102 103 106 108 115 124 134 134 133 131 125 129 137 140 89 192 240 333 43 85 95 115 140 128 88 97 49 137 142 124 137 221 148 115 116 109 95 58 47 140 117 114 113 109 108 107 101 93 84 75
96 107 106 95 98 107 113 122 124 127 127 129 123 76 129 126 128 184 176 339 216 105 43 76 103 122 77 122 124 44 120 126 163 148 208 174 198 165 148 125 89 81 96 107 116 122 116 116 117 113 95 73 53 38
108 107 100 109 118 94 126 124 128 137 120 111 123 117 114 174 199 139 84 65 46 88 55 86 85 92 92 94 105 144 115 154 171 138 184 214 122 144 143 129 117 111 111 111 113 114 110 100 95 107 86 64 55 51
96 121 119 111 120 103 109 126 131 119 127 118 102 80 38 332 78 77 145 68 90 45 98 132 94 85 103 87 84 108 139 133 151 161 218 58 146 150 145 136 127 122 120 118 114 112 107 102 100 94 84 73 62 44
83 91 104 122 138 153 114 116 131 142 103 60 59 58 19 39 54 35 17 42 61 104 107 106 81 80 90 75 45 118 59 184 199 219 209 139 155 152 145 143 140 136 134 127 121 116 113 112 105 98 88 69 44 21
85 97 110 113 111 119 149 167 186 158 60 57 38 55 59 72 56 59 66 73 65 81 80 88 74 76 59 106 53 119 143 220 224 307 95 154 163 154 148 150 148 142 135 123 126 127 126 123 116 102 69 27 359 345
101 109 94 93 100 116 110 103 133 103 68 60 46 70 94 87 48 49 62 58 62 69 67 57 78 95 86 86 169 185 208 204 92 85 147 164 167 164 151 150 146 146 138 134 138 146 151 158 164 354 330 323 328 333
119 94 97 99 96 94 94 142 58 51 57 55 42 55 79 76 68 60 60 48 62 53 48 24 53 44 108 154 113 13 34 48 115 135 153 170 170 162 152 157 163 155 141 143 154 174 190 193 242 286 306 320 334 332
85 91 100 103 94 98 68 60 77 68 63 44 67 46 69 82 79 64 55 51 49 57 42 67 90 16 18 47 83 72 91 119 130 133 130 152 166 167 162 152 149 152 173 187 190 186 198 217 327 333 326 327 342 335
76 88 102 86 46 68 60 47 50 82 60 60 59 68 68 67 61 56 49 45 49 72 98 112 44 37 45 40 28 84 134 145 141 143 144 151 154 158 156 159 163 174 171 160 149 148 195 240 281 318 323 332 332 331
66 69 84 96 39 78 72 46 54 71 64 58 48 45 55 56 49 43 44 38 31 51 50 40 34 20 14 2 27 47 169 173 166 156 161 172 181 188 183 179 171 162 165 177 180 163 127 358 322 323 322 327 330 331
61 69 79 75 61 65 79 52 59 65 76 68 56 54 58 47 37 31 26 17 51 27 64 41 34 23 26 22 38 146 181 188 195 196 181 165 166 177 180 175 168 156 149 146 131 305 303 312 315 321 324 325 323 328
49 53 53 47 64 67 66 42 79 87 79 92 75 52 59 50 43 21 4 51 58 30 20 12 15 29 17 12 3 65 106 218 198 176 162 171 153 155 149 140 145 153 149 125 34 320 317 314 317 321 323 320 328 323
52 51 52 40 69 58 50 31 66 31 84 83 111 80 56 61 22 355 79 65 62 9 12 22 21 36 54 44 36 40 75 120 108 124 148 154 157 151 144 144 140 123 85 352 329 316 312 317 318 325 324 324 325 320
50 51 37 43 45 75 63 46 48 61 65 46 71 78 45 31 1 58 67 64 20 15 21 22 24 44 45 53 63 69 66 81 100 101 99 113 116 111 107 95 67 26 352 325 316 320 321 321 323 323 321 324 320 321
64 21 33 48 36 63 58 51 30 50 64 53 66 81 54 348 61 61 75 68 26 27 30 36 43 57 63 65 66 70 80 82 83 94 100 86 76 63 38 14 357 334 329 328 323 323 320 320 322 319 320 320 317 320
69 26 36 30 41 46 42 66 47 47 52 57 61 58 31 58 81 81 72 34 33 27 29 41 40 44 49 62 63 57 64 72 66 81 88 76 66 52 30 12 4 321 326 326 325 322 321 318 318 318 318 318 316 317
61 49 41 41 51 74 89 69 57 52 56 42 49 34 285 150 103 85 116 44 69 53 52 52 54 61 65 60 63 70 73 77 76 71 52 29 7 353 343 334 322 316 320 322 324 322 318 315 313 313 315 314 311 310
58 37 50 21 64 46 84 68 58 59 59 14 298 37 21 21 70 83 84 76 97 68 37 30 33 47 63 80 87 69 48 41 42 21 5 349 342 335 335 332 327 325 321 319 318 314 312 312 313 311 307 306 309 311
47 15 32 35 45 53 43 38 56 56 9 342 345 76 86 77 110 113 163 153 130 71 36 20 19 26 39 53 52 41 37 39 34 357 354 339 327 315 316 321 318 317 318 319 320 320 320 319 314 310 311 311 311 314
28 14 36 45 44 58 63 29 51 55 45 67 95 99 89 94 86 125 121 128 111 42 357 351 19 87 67 63 19 1 355 351 347 342 331 319 312 311 317 320 321 322 323 323 322 321 321 319 320 318 311 311 313 310
359 0 39 33 59 52 10 351 2 35 93 66 75 90 117 131 105 94 98 77 37 60 60 51 58 67 57 28 5 352 343 333 335 332 328 324 321 321 318 315 319 318 318 318 318 318 315 317 316 311 310 310 313 317
25 37 1 345 71 351 2 30 353 250 111 92 82 81 105 125 95 43 47 75 37 51 77 70 59 16 359 346 342 339 333 329 329 328 325 323 320 316 313 313 315 315 314 315 316 313 312 312 313 311 311 312 313 317
24 17 9 357 346 3 0 353 28 97 68 73 71 69 62 51 86 89 52 51 68 94 83 45 2 347 341 336 335 332 330 328 327 324 322 321 318 315 314 314 315 312 314 314 312 310 307 307 308 308 308 309 312 315